Voltar ao catálogo

KUIPER-00208

AtivoComunicaçõesLEO
NORAD 67775·PAYLOAD·🇺🇸 United States

Lançado Feb 12, 2026 de Guiana Space Centre

Loading…

Próximas Passagens (próximas 24 horas)

TLE

AtualizadoSource: CelesTrak SupGP

Época: Sep 14, 2026, 22:15 UTC

1 67775C 26030M   26257.92754630  .00006467  00000+0  84650-3 0  2576
2 67775  51.8964  93.7886 0001406 108.0092 182.0341 14.79927024    14

Acompanhe KUIPER-00208 em tempo real com AllMySat

Download on the App Store